Location: Brookfield Center
(41.2406°N, 80.5579°W)
Time: 02:37:33
(UTC+00:00)

Cosmos 2082 - Pass Details

Date: 18 January 2020
Orbit: 833 x 856 km, 71.0° (Epoch: 22 February)

Event Time Altitude Azimuth Distance (km) Brightness Sun altitude
Exits shadow 10:54:32 24° 330° (NNW) 1,689 4.9 -20.4°
Maximum altitude 10:58:03 74° 250° (WSW) 884 3.6 -19.7°
Drops below altitude 10° 11:03:43 10° 165° (SSE) 2,474 6.5 -18.7°
Sets 11:06:10 0° 164° (SSE) 3,408 7.2 -18.2°
